Weather History for KPUC - February, 2013

Change the Weather History Date:

Monday, February 4, 2013

  Actual Average Record
Temperature  
Mean Temperature 25 °F -  
Max Temperature 36 °F 35 °F 55 °F (2015)
Min Temperature 14 °F 17 °F -1 °F (1979)
Degree Days  
Heating Degree Days 40    
Moisture  
Dew Point 14 °F    
Average Humidity 65    
Maximum Humidity 77    
Minimum Humidity 50    
Precipitation  
Precipitation 0.00 in - - ()
Sea Level Pressure  
Sea Level Pressure 30.29 in    
Wind  
Wind Speed 3 mph (ENE)    
Max Wind Speed 8 mph    
Max Gust Speed -    
Visibility 10 miles    
Events      
Averages and records for this station are not official NWS values.
T = Trace of Precipitation, MM = Missing Value Source: NWS Daily Summary

Daily Weather History Graph

Daily Weather History Graph

Search for Another Location

Airport or City:

Trip Planner

Search our weather history database for the weather conditions in past years. The results will help you decide how hot, cold, wet, or windy it might be!

Date:

Astronomy

Feb. 04, 2013 Rise Set
Actual Time 7:27 AM MST 5:47 PM MST
Civil Twilight 6:59 AM MST 6:15 PM MST
Nautical Twilight 6:27 AM MST 6:47 PM MST
Astronomical Twilight 5:55 AM MST 7:18 PM MST
Moon 2:06 AM MST (2/4) 12:13 PM MST (2/4)
Length of Visible Light 11h 15m
Length of Day
10h 19m
Last Quarter, 36% of the Moon is Illuminated
Feb 4
Last Quarter
Feb 10
New
Feb 17
First Quarter
Feb 25
Full
Mar 4
Last Quarter

Hourly Weather History & Observations

Time (MST) Temp. Windchill Dew Point Humidity Pressure Visibility Wind Dir Wind Speed Gust Speed Precip Events Conditions
12:53 AM 17.1 °F 11.7 °F 10.0 °F 74% 30.28 in 10.0 mi NE 3.5 mph - N/A   Clear
1:53 AM 16.0 °F 6.3 °F 9.0 °F 74% 30.27 in 10.0 mi NNE 6.9 mph - N/A   Clear
3:53 AM 15.8 °F 7.2 °F 8.6 °F 73% 30.12 in 10.0 mi NNE 5.8 mph - N/A   Clear
4:53 AM 15.1 °F - 9.0 °F 77% 30.27 in 10.0 mi Calm Calm - N/A   Clear
5:53 AM 18.0 °F - 10.0 °F 71% 30.30 in 10.0 mi Calm Calm - N/A   Clear
6:53 AM 14.0 °F 6.5 °F 7.0 °F 74% 30.34 in 10.0 mi NE 4.6 mph - N/A   Clear
7:53 AM 17.1 °F 6.6 °F 10.0 °F 74% 30.35 in 10.0 mi NE 8.1 mph - N/A   Clear
8:53 AM 28.0 °F - 14.0 °F 56% 30.32 in 10.0 mi Calm Calm - N/A   Clear
9:53 AM 27.0 °F - 15.1 °F 61% 30.33 in 10.0 mi Calm Calm - N/A   Clear
10:53 AM 30.0 °F - 16.0 °F 56% 30.33 in 10.0 mi Calm Calm - N/A   Clear
11:53 AM 33.1 °F - 18.0 °F 54% 30.31 in 10.0 mi Calm Calm - N/A   Clear
12:53 PM 32.0 °F 27.5 °F 19.9 °F 61% 30.29 in 10.0 mi SSE 4.6 mph - N/A   Clear
1:53 PM 34.0 °F 29.8 °F 21.0 °F 59% 30.28 in 10.0 mi SSE 4.6 mph - N/A   Clear
2:53 PM 35.1 °F 32.2 °F 19.9 °F 54% 30.27 in 10.0 mi East 3.5 mph - N/A   Clear
3:53 PM 36.0 °F 33.3 °F 19.0 °F 50% 30.27 in 10.0 mi ESE 3.5 mph - N/A   Clear
4:53 PM 36.0 °F - 19.0 °F 50% 30.26 in 10.0 mi Calm Calm - N/A   Clear
6:53 PM 30.0 °F 26.5 °F 19.0 °F 64% 30.30 in 10.0 mi West 3.5 mph - N/A   Clear
7:53 PM 26.1 °F 19.4 °F 17.1 °F 69% 30.31 in 10.0 mi ENE 5.8 mph - N/A   Clear
8:53 PM 24.1 °F - 16.0 °F 71% 30.28 in 10.0 mi Calm Calm - N/A   Clear
9:53 PM 23.0 °F 17.0 °F 14.0 °F 68% 30.28 in 10.0 mi NNW 4.6 mph - N/A   Clear
10:53 PM 21.0 °F 12.4 °F 12.9 °F 71% 30.27 in 10.0 mi ENE 6.9 mph - N/A   Clear
11:53 PM 25.0 °F 19.3 °F 12.9 °F 60% 30.24 in 10.0 mi NE 4.6 mph - N/A   Clear